Swansboro, NC

5:54 AM EST on December 14, 2017 (GMT -0500)
Bogue McAlf

Weather History for KNJM - January, 2013

Change the Weather History Date:

Monday, January 21, 2013

  Actual Average (KNKT) Record (KNKT)
Temperature  
Mean Temperature 49 °F -  
Max Temperature 61 °F 51 °F 72 °F (1999)
Min Temperature 37 °F 32 °F 19 °F (2009)
Degree Days  
Heating Degree Days 16    
Moisture  
Dew Point 39 °F    
Average Humidity 65    
Maximum Humidity 79    
Minimum Humidity 53    
Precipitation  
Precipitation 0.00 in - - ()
Sea Level Pressure  
Sea Level Pressure 30.02 in    
Wind  
Wind Speed 6 mph (West)    
Max Wind Speed 10 mph    
Max Gust Speed 16 mph    
Visibility 10 miles    
Events      
Averages and records for this station are not official NWS values.
T = Trace of Precipitation, MM = Missing Value Source: NWS Daily Summary

Daily Weather History Graph

Daily Weather History Graph

Search for Another Location

Airport or City:

Trip Planner

Search our weather history database for the weather conditions in past years. The results will help you decide how hot, cold, wet, or windy it might be!

Date:

Astronomy

Jan. 21, 2013 Rise Set
Actual Time 7:12 AM EST 5:26 PM EST
Civil Twilight 6:45 AM EST 5:53 PM EST
Nautical Twilight 6:15 AM EST 6:24 PM EST
Astronomical Twilight 5:44 AM EST 6:54 PM EST
Moon 1:05 PM EST (1/21) 2:38 AM EST (1/21)
Length of Visible Light 11h 08m
Length of Day
10h 13m
Waxing Gibbous, 75% of the Moon is Illuminated
Jan 21
Waxing Gibbous
Jan 26
Full
Feb 3
Last Quarter
Feb 10
New
Feb 17
First Quarter

Hourly Weather History & Observations

Time (EST) Temp. Windchill Dew Point Humidity Pressure Visibility Wind Dir Wind Speed Gust Speed Precip Events Conditions
12:57 AM 44.1 °F 40.8 °F 36.0 °F 73% 30.09 in 10.0 mi NNW 5.8 mph - N/A   Clear
1:57 AM 45.0 °F 41.8 °F 35.1 °F 68% 30.09 in 10.0 mi North 5.8 mph - N/A   Clear
2:57 AM 44.1 °F 40.1 °F 34.0 °F 68% 30.09 in 10.0 mi North 6.9 mph - N/A   Clear
4:57 AM 39.9 °F - 32.0 °F 73% 30.08 in 10.0 mi Calm Calm - N/A   Clear
5:57 AM 37.9 °F 34.4 °F 32.0 °F 79% 30.08 in 10.0 mi North 4.6 mph - N/A   Clear
6:57 AM 39.9 °F 35.8 °F 33.1 °F 77% 30.09 in 10.0 mi NNE 5.8 mph - N/A   Clear
7:57 AM 41.0 °F 38.0 °F 33.1 °F 73% 30.09 in 10.0 mi NNE 4.6 mph - N/A   Clear
8:57 AM 48.0 °F - 34.0 °F 58% 30.09 in 10.0 mi ENE 5.8 mph - N/A   Clear
9:57 AM 52.0 °F - 37.9 °F 59% 30.09 in 10.0 mi East 5.8 mph - N/A   Clear
10:57 AM 53.1 °F - 41.0 °F 64% 30.08 in 10.0 mi ESE 4.6 mph - N/A   Clear
11:57 AM 57.0 °F - 43.0 °F 59% 30.04 in 10.0 mi SSE 4.6 mph - N/A   Clear
12:57 PM 61.0 °F - 45.0 °F 56% 30.01 in 10.0 mi SSW 4.6 mph - N/A   Clear
1:57 PM 61.0 °F - 45.0 °F 56% 29.97 in 10.0 mi SSW 5.8 mph - N/A   Clear
2:57 PM 60.1 °F - 46.0 °F 60% 29.94 in 10.0 mi SSW 9.2 mph - N/A   Clear
3:57 PM 59.0 °F - 46.0 °F 62% 29.93 in 10.0 mi SW 8.1 mph 16.1 mph N/A   Clear
4:57 PM 57.0 °F - 46.0 °F 67% 29.92 in 10.0 mi SW 10.4 mph - N/A   Clear
5:57 PM 55.9 °F - 46.0 °F 69% 29.91 in 10.0 mi WSW 10.4 mph - N/A   Clear
7:57 PM 54.0 °F - 45.0 °F 72% 29.93 in 10.0 mi WSW 5.8 mph - N/A   Clear
9:57 PM 54.0 °F - 39.9 °F 59% 29.95 in 10.0 mi West 4.6 mph - N/A   Clear
10:57 PM 52.0 °F - 37.0 °F 57% 29.95 in 10.0 mi West 4.6 mph - N/A   Clear
11:57 PM 52.0 °F - 35.1 °F 53% 29.96 in 10.0 mi West 8.1 mph - N/A   Clear